SITRO-AIS 12 (SMIRENNIY)

Last updated on Thu Nov 21 2024 00:03:40 GMT+0000 (Coordinated Universal Time)

1 57204U 23091AQ 24325.54997799 .00017932 00000+0 91568-3 0 9991 2 57204 97.5924 18.4837 0009666 289.3432 70.6756 15.16721290 77217
UTC large
Height (km)
Speed (km/s)
/
Latitude / Longitude
Inclination (degrees)
Orbital Period (minutes)
Azimuth
Elevation
Range (km)
Doppler Factor

Next 0 passes for location: London (51.5072 / 0.1276)

Sorry there are no passes over London.